Dewpoint
52 53 54 55 55 56 56 56 57 57 57 57 56 56 56 56 54 49 45 50 52 53 53 51 49 48 48 43 44 47 36 32 34 34 31 33 34 36 38 38 48 58 59 59 63
53 53 53 54 55 55 56 56 56 57 57 57 56 56 56 57 49 46 50 52 52 52 50 48 46 47 44 42 43 41 37 36 38 36 36 37 37 37 37 36 51 57 61 61 62
53 53 53 53 54 54 55 55 56 56 57 56 56 55 56 56 44 43 51 52 52 52 51 50 48 46 42 41 41 41 37 39 39 39 38 39 37 38 36 42 39 46 59 61 61
52 53 53 53 53 54 54 55 55 56 56 56 55 55 56 50 27 45 51 50 51 51 48 46 44 42 40 36 40 38 39 39 39 41 41 40 39 35 36 35 38 53 58 60 60
52 52 51 52 52 53 54 54 55 55 55 55 55 56 49 40 40 49 49 48 49 48 46 44 42 41 39 40 40 38 39 40 41 41 41 40 38 36 35 35 40 53 57 57 57
52 52 53 53 54 54 54 54 54 54 54 55 55 56 46 33 47 48 47 48 48 47 46 44 42 42 41 40 39 39 39 40 40 41 40 38 38 36 34 35 34 48 53 55 56
52 52 53 53 54 54 54 54 54 54 54 55 55 54 43 34 46 48 47 47 48 47 45 46 44 42 42 38 41 39 38 39 38 39 38 37 32 33 34 32 32 35 51 54 54
53 53 53 53 54 54 54 54 54 55 55 55 55 51 33 44 46 46 47 46 48 48 47 47 46 45 43 42 39 38 38 34 35 37 38 35 27 31 34 33 32 34 41 53 56
53 53 53 53 54 54 54 54 54 54 55 54 49 45 32 46 42 45 46 45 46 46 46 46 45 42 42 38 34 35 31 33 33 36 36 35 32 34 35 33 32 33 35 50 55
53 53 53 53 53 54 53 52 51 51 52 51 47 37 36 35 42 44 47 46 44 44 44 44 43 39 37 35 26 31 32 34 32 33 36 35 34 35 35 35 33 32 33 44 54
54 53 54 53 53 53 50 41 27 33 40 31 32 32 31 41 42 42 45 44 44 44 38 41 36 31 31 33 34 34 34 33 30 30 34 34 32 32 33 34 33 33 34 40 52
54 54 54 54 53 52 44 36 38 39 29 34 34 35 31 36 29 40 44 39 41 32 38 36 32 32 35 34 33 32 31 28 29 32 31 32 32 32 32 33 33 32 32 35 49
51 53 53 53 52 41 38 39 43 44 34 31 30 29 31 34 29 32 41 38 35 32 32 29 26 35 34 32 32 32 31 28 30 31 30 30 28 28 29 29 30 30 30 35 41
50 51 52 52 37 43 39 42 44 43 27 24 23 25 32 33 26 38 41 35 29 29 28 26 31 33 33 33 34 31 33 33 31 29 24 29 24 27 27 27 26 27 29 30 43
47 49 50 52 42 38 39 44 43 38 -1 21 22 31 33 27 26 31 40 35 28 24 26 17 31 32 33 31 34 31 35 33 33 32 26 26 26 26 24 21 23 24 27 29 44
47 48 50 47 43 44 44 44 40 20 3 13 22 23 26 28 28 35 34 37 36 29 28 27 28 30 26 30 32 33 32 28 30 28 23 25 25 22 23 22 22 24 25 30 45
45 48 49 49 33 45 45 40 16 5 18 12 16 24 23 22 25 28 27 28 22 19 16 20 24 28 30 27 31 33 28 22 20 22 19 26 26 25 26 26 27 24 25 33 50
45 48 49 47 45 45 43 25 -5 2 17 19 19 21 19 22 21 22 22 21 25 23 20 18 8 27 28 26 26 30 27 24 19 17 19 24 22 21 26 31 32 35 34 47 52
45 45 46 47 46 45 37 12 -6 3 20 17 15 17 18 21 18 18 20 19 20 23 15 15 14 25 27 26 24 24 25 28 25 24 22 22 23 25 28 29 31 38 45 49 51
43 46 44 46 44 42 32 12 7 29 22 18 9 12 11 14 16 15 15 17 18 24 24 18 14 19 23 26 25 25 26 22 23 18 17 18 19 20 24 25 29 34 45 48 51
44 38 42 45 43 36 23 21 26 27 24 21 16 15 16 14 15 14 12 15 21 23 25 23 21 16 21 22 18 24 21 23 22 22 17 15 15 23 24 30 30 32 45 48 50
38 25 43 43 31 33 28 30 28 22 26 24 25 23 21 17 15 15 15 16 23 24 19 23 21 19 15 22 23 25 23 22 19 18 19 16 16 23 28 30 32 33 45 46 48
35 37 42 38 25 27 31 30 29 25 26 25 24 26 24 21 16 16 17 24 25 24 20 24 20 11 9 19 24 20 19 21 21 20 18 15 12 22 25 28 32 33 45 45 45
36 30 34 36 34 30 29 29 29 30 28 29 26 25 25 23 22 19 19 24 27 26 29 24 20 14 8 9 17 18 18 19 19 15 14 14 12 14 18 23 31 39 43 42 44
36 33 33 28 27 27 30 29 25 28 31 31 28 31 30 27 23 21 23 24 28 30 30 26 19 21 19 19 20 20 20 19 19 17 15 13 15 16 15 20 28 41 41 41 42
30 29 29 26 29 26 24 21 26 25 24 25 29 24 24 27 29 27 28 28 25 30 30 30 22 24 21 21 20 19 19 21 21 20 18 18 17 19 17 23 29 37 41 40 41
32 30 30 24 24 20 18 22 21 21 20 23 22 22 19 21 27 27 27 28 29 27 28 29 27 21 17 18 20 16 17 17 19 21 19 16 17 19 21 22 26 37 40 40 40
Wind_Speed
12 13 13 12 13 13 13 13 14 14 14 15 15 16 15 16 16 2 1 6 8 11 10 9 7 11 5 2 4 1 4 9 6 4 11 12 17 11 12 11 12 7 8 13 27
13 13 12 13 13 12 13 14 14 14 15 15 15 16 15 14 4 2 2 9 9 8 5 6 6 8 3 2 2 2 7 6 8 12 14 14 14 20 12 22 6 2 3 25 27
15 15 14 14 14 14 13 13 13 14 15 15 15 16 15 10 3 3 4 7 7 7 4 6 7 1 1 1 2 2 6 9 16 18 17 17 14 13 15 5 11 17 12 24 29
18 17 15 14 14 14 15 14 14 13 13 13 14 16 17 1 6 1 4 6 7 9 8 5 4 1 3 3 4 7 12 16 16 9 10 12 7 12 7 8 16 9 8 15 20
19 18 16 14 14 15 15 15 15 15 13 12 12 13 4 3 5 3 1 4 5 7 7 4 4 4 3 5 9 9 9 11 16 18 18 14 7 8 18 17 10 7 7 16 14
20 19 18 17 17 16 15 15 15 15 14 12 10 8 1 5 5 4 2 0 3 5 7 4 2 3 5 5 4 6 13 16 15 17 14 18 10 3 9 11 10 4 13 14 23
22 21 19 18 18 17 16 16 16 15 14 11 8 2 2 9 4 6 4 3 3 1 2 3 2 3 4 7 3 9 12 14 13 13 8 7 21 16 13 6 14 5 13 13 21
24 24 22 19 19 19 17 16 16 16 14 10 4 2 6 1 2 5 6 4 7 5 4 5 2 4 3 9 6 3 2 6 5 5 7 3 28 6 2 8 17 7 7 22 19
26 26 26 23 20 18 18 18 14 12 6 2 4 2 7 1 3 6 5 4 5 5 5 3 1 3 4 6 4 8 7 7 10 4 5 7 17 12 3 4 13 12 9 14 21
26 27 27 26 23 20 19 13 1 1 3 2 2 3 4 3 3 4 4 4 3 5 1 3 2 3 3 2 6 5 5 7 10 5 6 17 25 26 23 8 17 19 13 15 16
26 27 28 28 24 19 10 3 4 1 0 6 2 4 4 2 2 5 5 2 2 2 2 3 1 11 10 9 9 8 10 16 17 15 5 14 22 24 23 8 16 18 14 10 20
27 28 29 28 28 17 3 5 2 1 9 6 13 11 7 2 4 5 6 3 2 7 1 2 11 10 7 8 8 12 15 16 14 7 12 16 24 25 23 14 18 22 18 15 8
28 28 29 32 24 4 5 2 1 3 3 6 5 4 3 4 5 4 10 3 6 6 7 7 7 4 4 6 8 13 12 11 9 13 11 11 17 15 16 11 19 20 19 13 11
29 28 27 36 2 5 1 2 1 2 4 3 3 3 3 2 5 2 11 2 3 7 6 9 3 6 5 6 5 10 6 8 11 10 6 4 12 14 21 21 15 20 18 18 10
29 28 25 20 7 2 1 2 0 1 6 2 3 1 2 4 5 3 2 2 8 8 3 6 5 8 8 5 7 8 5 10 12 12 8 4 5 10 7 11 16 20 21 18 12
31 29 25 2 4 3 1 1 1 3 6 2 2 2 3 4 3 2 2 1 3 6 5 18 4 5 7 5 8 6 8 11 3 2 5 5 6 16 5 7 7 13 19 20 11
36 32 21 4 2 2 2 2 4 4 1 3 4 3 4 5 4 6 4 5 4 5 4 7 5 4 4 4 0 3 4 6 4 2 8 3 5 19 16 17 14 14 21 22 15
37 30 4 5 3 2 2 1 7 5 7 1 1 3 6 3 5 2 4 7 7 8 5 5 7 7 6 6 3 6 6 2 6 5 14 7 8 9 6 3 2 7 15 15 14
29 8 3 6 4 3 3 6 8 7 2 2 3 4 3 3 4 2 6 6 5 13 7 3 6 2 7 3 5 3 7 4 3 3 4 6 8 15 6 1 5 5 8 15 16
12 7 5 4 3 2 3 7 5 3 1 1 6 6 6 4 4 2 4 5 3 8 5 2 9 3 2 0 7 5 1 2 1 5 7 7 10 14 13 11 8 5 4 12 16
4 4 5 5 2 2 5 6 5 5 4 2 3 7 9 5 8 4 7 6 6 6 5 3 4 5 1 7 7 5 5 6 3 4 5 7 10 7 10 12 8 3 2 9 19
8 2 6 4 1 1 3 6 11 7 4 8 4 7 8 6 5 7 12 9 8 11 6 7 4 9 12 4 5 5 8 11 6 6 6 2 19 5 5 5 4 4 6 7 11
8 5 5 3 1 4 9 8 5 7 9 4 4 5 1 3 6 9 6 4 8 10 6 8 5 7 10 1 1 6 7 9 2 1 14 8 13 3 5 5 3 8 11 12 12
5 7 7 7 5 6 9 6 10 11 3 10 8 5 9 6 10 9 9 4 3 5 5 6 6 12 20 14 1 7 6 6 11 8 11 20 25 18 11 10 6 9 14 16 18
8 6 5 8 6 14 5 6 11 8 10 13 6 13 11 6 11 9 8 13 6 4 5 4 11 11 22 26 19 26 27 21 24 26 18 30 21 21 17 16 16 16 16 18 18
6 6 8 9 10 8 7 6 12 8 9 12 6 18 19 9 15 11 20 11 11 3 5 4 10 5 17 17 20 23 25 21 28 28 27 32 38 28 22 10 11 19 21 21 19
7 5 3 5 5 6 3 6 12 24 13 7 21 24 19 23 21 29 26 27 27 26 14 6 7 5 22 10 12 13 24 25 14 13 16 22 27 10 8 13 18 22 23 24 22
Wind_Direction
359 347 343 337 332 331 330 328 328 327 328 329 327 322 324 325 323 37 333 299 325 329 331 327 4 1 308 291 304 26 227 255 252 255 272 325 340 318 295 290 258 182 168 155 157
0 348 339 331 327 323 323 321 320 322 321 320 322 322 327 324 319 290 266 329 337 339 344 357 351 350 51 285 292 253 238 233 232 268 288 308 338 310 333 322 346 227 61 148 137
357 350 341 333 325 320 314 312 313 314 315 318 320 320 323 324 299 264 318 325 334 330 295 301 290 289 82 238 252 251 248 258 274 275 283 294 312 316 323 311 340 312 158 152 148
357 349 343 333 324 317 312 310 306 303 306 312 318 322 321 139 4 240 306 311 332 324 316 330 310 326 246 203 221 246 247 255 272 285 305 302 301 308 271 284 320 286 188 145 154
357 353 344 332 324 318 313 307 305 302 302 306 317 329 357 325 262 201 333 325 342 348 338 327 14 343 291 316 324 255 270 268 279 290 290 289 261 274 284 286 345 351 208 167 185
355 353 345 335 326 317 310 306 302 299 301 304 316 328 4 290 141 178 154 182 2 11 347 12 9 300 281 269 276 303 301 289 293 287 276 283 266 247 260 283 310 274 240 220 215
353 348 342 334 326 319 310 303 300 297 295 298 306 275 255 250 187 188 205 217 201 118 356 337 334 346 305 287 295 284 295 301 277 269 276 291 282 232 242 277 279 255 221 214 228
354 350 342 334 326 320 311 303 298 293 289 281 255 180 254 199 167 222 224 278 235 212 199 266 277 292 254 304 307 277 296 317 292 280 262 199 268 95 281 294 291 295 236 215 213
352 349 345 336 327 323 316 305 292 294 229 165 137 184 274 135 229 220 197 257 275 237 224 235 128 288 314 313 344 22 301 292 308 263 257 215 286 299 8 346 297 301 297 236 219
348 345 343 339 331 326 322 314 267 28 113 171 265 302 252 265 188 200 213 225 282 309 290 162 110 312 289 321 316 305 315 295 287 299 263 262 272 286 283 248 273 286 292 250 216
345 343 342 340 333 329 343 2 8 321 43 231 225 265 275 172 139 217 195 233 244 266 273 211 264 285 274 247 260 250 266 266 281 293 314 271 274 286 286 248 261 272 275 274 222
344 341 339 341 333 325 60 68 101 243 308 261 255 258 268 188 283 234 156 231 214 281 213 253 256 260 232 264 265 270 272 277 292 308 320 296 284 280 280 261 251 260 262 270 249
344 341 338 340 333 14 68 93 169 142 285 297 228 238 223 172 261 239 173 205 252 264 237 243 260 188 193 277 285 286 265 276 277 320 298 297 283 271 270 253 253 247 244 256 247
340 338 339 336 48 339 6 318 348 139 351 246 249 255 149 165 273 202 190 224 276 278 283 259 231 215 223 259 257 292 257 275 285 322 288 38 294 276 280 276 249 244 239 243 246
336 333 334 332 300 269 282 285 145 98 324 183 222 141 147 212 315 205 159 118 258 273 341 273 216 228 253 228 180 247 300 275 289 287 307 310 233 278 279 284 277 260 244 241 233
334 330 330 348 287 240 298 358 83 9 258 268 199 243 251 212 240 150 197 163 261 293 246 254 303 221 227 231 201 271 318 307 278 258 276 251 209 287 278 252 283 244 238 237 222
331 324 319 208 246 153 98 89 319 218 0 215 244 202 245 252 251 197 220 223 242 319 314 307 231 251 195 269 67 143 4 321 313 302 251 149 269 256 262 269 259 264 242 218 204
329 320 283 220 170 104 81 86 241 248 243 347 241 269 251 211 240 235 266 276 227 210 293 310 315 197 192 214 211 193 160 204 293 290 296 278 237 269 244 299 328 311 240 189 179
331 331 334 336 160 95 122 215 234 222 223 215 300 253 253 234 246 267 231 239 230 180 201 275 269 250 210 188 175 161 202 180 250 252 288 265 286 299 353 301 347 3 183 180 172
328 340 357 343 85 87 165 240 264 264 133 208 267 219 256 219 207 200 272 210 228 193 172 247 288 265 292 357 248 221 194 214 225 291 292 282 279 257 323 331 313 319 229 194 162
3 47 335 358 24 73 225 246 300 352 340 288 277 286 255 274 232 220 255 274 186 161 162 163 199 287 325 211 209 167 237 216 232 204 257 298 277 224 293 316 281 259 212 206 156
349 81 331 359 356 10 246 327 332 327 312 278 252 248 256 282 269 241 241 230 175 159 190 210 194 264 250 242 237 216 225 187 203 232 230 223 279 230 253 302 289 207 165 172 164
357 304 326 6 24 352 342 322 309 346 330 314 286 238 346 273 289 247 272 325 173 179 194 182 221 300 306 315 218 251 224 223 202 119 246 240 263 224 261 279 269 202 166 152 145
10 355 345 34 33 39 357 307 333 320 296 348 286 322 335 284 245 276 295 318 224 229 192 183 218 219 250 265 274 259 256 240 222 242 255 232 265 266 266 245 223 193 174 158 155
18 45 18 340 330 336 302 273 300 341 343 6 342 31 5 305 318 285 335 336 301 258 191 221 254 230 253 264 270 269 264 252 234 234 244 275 257 262 263 225 212 186 172 163 163
45 11 348 302 311 346 337 316 331 354 338 315 350 344 333 302 306 318 327 331 288 317 228 209 255 254 270 267 263 269 268 254 245 250 247 257 272 271 250 217 196 188 175 174 171
8 327 279 288 326 337 282 341 315 328 302 302 336 327 316 303 308 300 285 277 258 270 265 251 228 237 272 281 299 266 253 245 239 218 225 239 253 248 231 225 215 188 182 179 174